Time,TemperatureF,DewpointF,PressureIn,WindDirection,WindDirectionDegrees,WindSpeedMPH,WindSpeedGustMPH,Humidity,HourlyPrecipIn,Conditions,Clouds,dailyrainin,SolarRadiationWatts/m^2,SoftwareType,DateUTC
2013-01-23 00:00:00,66.5,55.2,30.16,NE,53,2.0,4.0,67,0.00,,FEW070,0.00,0.00,VWS V14.00,2013-01-23 05:00:00,
2013-01-23 00:03:00,66.6,54.9,30.16,NE,56,2.0,5.0,66,0.00,,FEW070,0.00,0.00,VWS V14.00,2013-01-23 05:03:00,
2013-01-23 00:08:00,66.6,54.9,30.16,ENE,57,4.0,5.0,66,0.00,,FEW070,0.00,0.00,VWS V14.00,2013-01-23 05:08:00,
2013-01-23 00:13:00,66.8,55.1,30.16,NE,53,4.0,10.0,66,0.00,,FEW070,0.00,0.00,VWS V14.00,2013-01-23 05:13:00,
2013-01-23 00:18:00,66.8,54.7,30.17,ENE,63,2.0,6.0,65,0.00,,FEW070,0.00,0.00,VWS V14.00,2013-01-23 05:18:00,
2013-01-23 00:23:00,66.8,54.7,30.16,ENE,63,5.0,10.0,65,0.00,,FEW070,0.00,0.00,VWS V14.00,2013-01-23 05:23:00,
2013-01-23 00:28:00,66.8,54.2,30.16,ENE,65,5.0,9.0,64,0.00,,FEW070,0.00,0.00,VWS V14.00,2013-01-23 05:28:00,
2013-01-23 00:33:00,66.8,53.8,30.15,ENE,65,4.0,9.0,63,0.00,,FEW070,0.00,0.00,VWS V14.00,2013-01-23 05:33:00,
2013-01-23 00:38:00,66.8,53.8,30.16,ENE,65,7.0,7.0,63,0.00,,FEW070,0.00,0.00,VWS V14.00,2013-01-23 05:38:00,
2013-01-23 00:43:00,66.9,53.9,30.16,ENE,69,2.0,5.0,63,0.00,,FEW070,0.00,0.00,VWS V14.00,2013-01-23 05:43:00,
2013-01-23 00:48:00,66.9,53.9,30.16,ENE,69,1.0,4.0,63,0.00,,FEW070,0.00,0.00,VWS V14.00,2013-01-23 05:48:00,
2013-01-23 00:53:00,66.9,54.3,30.16,ENE,76,5.0,9.0,64,0.00,,FEW070,0.00,0.00,VWS V14.00,2013-01-23 05:53:00,
2013-01-23 00:58:00,66.9,54.3,30.16,ENE,76,3.0,5.0,64,0.00,,FEW070,0.00,0.00,VWS V14.00,2013-01-23 05:58:00,
2013-01-23 01:03:00,66.9,54.3,30.16,ENE,78,2.0,4.0,64,0.00,,FEW070,0.00,0.00,VWS V14.00,2013-01-23 06:03:00,
2013-01-23 01:08:00,66.8,54.7,30.16,ENE,78,4.0,6.0,65,0.00,,FEW070,0.00,0.00,VWS V14.00,2013-01-23 06:08:00,
2013-01-23 01:13:00,66.9,54.3,30.16,ENE,73,4.0,5.0,64,0.00,,FEW070,0.00,0.00,VWS V14.00,2013-01-23 06:13:00,
2013-01-23 01:18:00,66.9,54.3,30.16,East,90,2.0,6.0,64,0.00,,FEW070,0.00,0.00,VWS V14.00,2013-01-23 06:18:00,
2013-01-23 01:23:00,67.0,54.0,30.16,East,88,2.0,6.0,63,0.00,,FEW070,0.00,0.00,VWS V14.00,2013-01-23 06:23:00,
2013-01-23 01:29:00,67.0,54.4,30.16,East,88,2.0,3.0,64,0.00,,FEW070,0.00,0.00,VWS V14.00,2013-01-23 06:29:00,
2013-01-23 01:34:00,66.9,54.3,30.16,East,88,0.0,1.0,64,0.00,,FEW070,0.00,0.00,VWS V14.00,2013-01-23 06:34:00,
2013-01-23 01:38:00,66.8,54.2,30.16,East,88,1.0,4.0,64,0.00,,FEW070,0.00,0.00,VWS V14.00,2013-01-23 06:38:00,
2013-01-23 01:43:00,66.9,54.8,30.16,East,88,0.0,2.0,65,0.00,,FEW070,0.00,0.00,VWS V14.00,2013-01-23 06:43:00,
2013-01-23 01:49:00,66.8,54.7,30.16,East,88,0.0,3.0,65,0.00,,FEW070,0.00,0.00,VWS V14.00,2013-01-23 06:49:00,
2013-01-23 01:54:00,66.8,55.1,30.16,East,87,0.0,2.0,66,0.00,,FEW070,0.00,0.00,VWS V14.00,2013-01-23 06:54:00,
2013-01-23 01:59:00,66.8,55.1,30.16,East,87,1.0,3.0,66,0.00,,FEW070,0.00,0.00,VWS V14.00,2013-01-23 06:59:00,
2013-01-23 02:04:00,66.7,55.4,30.16,East,87,0.0,1.0,67,0.00,,FEW070,0.00,0.00,VWS V14.00,2013-01-23 07:04:00,
2013-01-23 02:09:00,66.7,55.0,30.16,East,87,3.0,3.0,66,0.00,,FEW070,0.00,0.00,VWS V14.00,2013-01-23 07:09:00,
2013-01-23 02:14:00,66.6,54.9,30.15,East,87,1.0,2.0,66,0.00,,FEW070,0.00,0.00,VWS V14.00,2013-01-23 07:14:00,
2013-01-23 02:19:00,66.6,55.3,30.15,East,87,1.0,4.0,67,0.00,,FEW070,0.00,0.00,VWS V14.00,2013-01-23 07:19:00,
2013-01-23 02:24:00,66.6,55.3,30.15,East,87,0.0,3.0,67,0.00,,FEW070,0.00,0.00,VWS V14.00,2013-01-23 07:24:00,
2013-01-23 02:29:00,66.6,55.3,30.16,East,87,0.0,3.0,67,0.00,,FEW070,0.00,0.00,VWS V14.00,2013-01-23 07:29:00,
2013-01-23 02:34:00,66.7,55.0,30.16,East,87,3.0,5.0,66,0.00,,FEW070,0.00,0.00,VWS V14.00,2013-01-23 07:34:00,
2013-01-23 02:39:00,66.7,55.0,30.16,East,86,2.0,2.0,66,0.00,,FEW070,0.00,0.00,VWS V14.00,2013-01-23 07:39:00,
2013-01-23 02:44:00,66.8,55.1,30.16,East,85,1.0,4.0,66,0.00,,FEW070,0.00,0.00,VWS V14.00,2013-01-23 07:44:00,
2013-01-23 02:49:00,66.7,55.0,30.16,East,85,3.0,3.0,66,0.00,,FEW070,0.00,0.00,VWS V14.00,2013-01-23 07:49:00,
2013-01-23 02:54:00,66.7,55.0,30.16,East,85,0.0,3.0,66,0.00,,FEW070,0.00,0.00,VWS V14.00,2013-01-23 07:54:00,
2013-01-23 02:59:00,66.6,54.9,30.16,East,85,0.0,2.0,66,0.00,,FEW070,0.00,0.00,VWS V14.00,2013-01-23 07:59:00,
2013-01-23 03:04:00,66.6,55.3,30.16,East,85,0.0,1.0,67,0.00,,FEW070,0.00,0.00,VWS V14.00,2013-01-23 08:04:00,
2013-01-23 03:09:00,66.5,54.8,30.16,East,85,0.0,0.0,66,0.00,,FEW070,0.00,0.00,VWS V14.00,2013-01-23 08:09:00,
2013-01-23 03:14:00,66.4,54.7,30.16,East,85,2.0,4.0,66,0.00,,FEW070,0.00,0.00,VWS V14.00,2013-01-23 08:14:00,
2013-01-23 03:19:00,66.4,54.7,30.16,East,85,0.0,2.0,66,0.00,,FEW070,0.00,0.00,VWS V14.00,2013-01-23 08:19:00,
2013-01-23 03:24:00,66.4,55.1,30.16,East,85,0.0,0.0,67,0.00,,FEW070,0.00,0.00,VWS V14.00,2013-01-23 08:24:00,
2013-01-23 03:29:00,66.3,55.0,30.16,East,85,0.0,0.0,67,0.00,,FEW070,0.00,0.00,VWS V14.00,2013-01-23 08:29:00,
2013-01-23 03:34:00,66.3,55.0,30.16,East,85,0.0,1.0,67,0.00,,FEW070,0.00,0.00,VWS V14.00,2013-01-23 08:34:00,
2013-01-23 03:39:00,66.3,55.0,30.16,East,85,0.0,0.0,67,0.00,,FEW070,0.00,0.00,VWS V14.00,2013-01-23 08:39:00,
2013-01-23 03:44:00,66.2,54.9,30.16,East,85,0.0,0.0,67,0.00,,FEW070,0.00,0.00,VWS V14.00,2013-01-23 08:44:00,
2013-01-23 03:49:00,66.1,54.8,30.16,East,85,0.0,0.0,67,0.00,,FEW070,0.00,0.00,VWS V14.00,2013-01-23 08:49:00,
2013-01-23 03:54:00,66.0,55.2,30.16,East,85,0.0,0.0,68,0.00,,FEW070,0.00,0.00,VWS V14.00,2013-01-23 08:54:00,
2013-01-23 03:59:00,65.9,55.0,30.16,East,85,0.0,1.0,68,0.00,,FEW070,0.00,0.00,VWS V14.00,2013-01-23 08:59:00,
2013-01-23 04:04:00,65.7,55.3,30.16,East,85,0.0,0.0,69,0.00,,FEW070,0.00,0.00,VWS V14.00,2013-01-23 09:04:00,
2013-01-23 04:09:00,65.5,56.2,30.16,East,85,0.0,0.0,72,0.00,,FEW070,0.00,0.00,VWS V14.00,2013-01-23 09:09:00,
2013-01-23 04:14:00,65.2,57.1,30.16,East,85,0.0,0.0,75,0.00,,FEW070,0.00,0.00,VWS V14.00,2013-01-23 09:14:00,
2013-01-23 04:19:00,64.6,57.2,30.16,East,85,0.0,0.0,77,0.00,,FEW070,0.00,0.00,VWS V14.00,2013-01-23 09:19:00,
2013-01-23 04:24:00,64.0,57.7,30.16,East,85,0.0,0.0,80,0.00,,FEW070,0.00,0.00,VWS V14.00,2013-01-23 09:24:00,
2013-01-23 04:29:00,63.6,58.0,30.16,East,85,0.0,0.0,82,0.00,,FEW070,0.00,0.00,VWS V14.00,2013-01-23 09:29:00,
2013-01-23 04:34:00,63.2,58.0,30.16,East,85,0.0,0.0,83,0.00,,FEW070,0.00,0.00,VWS V14.00,2013-01-23 09:34:00,
2013-01-23 04:39:00,63.0,58.1,30.16,East,85,0.0,1.0,84,0.00,,FEW070,0.00,0.00,VWS V14.00,2013-01-23 09:39:00,
2013-01-23 04:44:00,62.7,58.1,30.16,East,85,3.0,4.0,85,0.00,,FEW070,0.00,0.00,VWS V14.00,2013-01-23 09:44:00,
2013-01-23 04:49:00,62.4,57.8,30.16,East,85,0.0,1.0,85,0.00,,FEW070,0.00,0.00,VWS V14.00,2013-01-23 09:49:00,
2013-01-23 04:54:00,62.2,57.6,30.16,East,85,0.0,0.0,85,0.00,,FEW070,0.00,0.00,VWS V14.00,2013-01-23 09:54:00,
2013-01-23 04:59:00,62.2,57.6,30.16,East,85,0.0,1.0,85,0.00,,FEW070,0.00,0.00,VWS V14.00,2013-01-23 09:59:00,
2013-01-23 05:04:00,62.2,57.3,30.16,East,83,0.0,4.0,84,0.00,,FEW070,0.00,0.00,VWS V14.00,2013-01-23 10:04:00,
2013-01-23 05:09:00,62.2,57.0,30.16,East,82,0.0,4.0,83,0.00,,FEW070,0.00,0.00,VWS V14.00,2013-01-23 10:09:00,
2013-01-23 05:14:00,62.3,57.1,30.16,East,82,0.0,1.0,83,0.00,,FEW070,0.00,0.00,VWS V14.00,2013-01-23 10:14:00,
2013-01-23 05:19:00,62.3,56.7,30.16,East,82,2.0,4.0,82,0.00,,FEW070,0.00,0.00,VWS V14.00,2013-01-23 10:19:00,
2013-01-23 05:24:00,62.2,56.6,30.16,East,82,0.0,0.0,82,0.00,,FEW070,0.00,0.00,VWS V14.00,2013-01-23 10:24:00,
2013-01-23 05:29:00,62.2,56.6,30.16,East,82,2.0,3.0,82,0.00,,FEW070,0.00,0.00,VWS V14.00,2013-01-23 10:29:00,
2013-01-23 05:35:00,62.2,56.6,30.16,East,82,0.0,0.0,82,0.00,,FEW070,0.00,0.00,VWS V14.00,2013-01-23 10:35:00,
2013-01-23 05:40:00,62.2,56.6,30.16,East,82,0.0,0.0,82,0.00,,FEW070,0.00,0.00,VWS V14.00,2013-01-23 10:40:00,
2013-01-23 05:45:00,62.1,56.5,30.17,East,82,3.0,4.0,82,0.00,,FEW070,0.00,0.00,VWS V14.00,2013-01-23 10:45:00,
2013-01-23 05:50:00,62.0,56.5,30.17,East,82,0.0,0.0,82,0.00,,FEW070,0.00,0.00,VWS V14.00,2013-01-23 10:50:00,
2013-01-23 05:55:00,62.0,56.5,30.17,East,82,1.0,3.0,82,0.00,,FEW070,0.00,0.00,VWS V14.00,2013-01-23 10:55:00,
2013-01-23 06:00:00,61.9,56.3,30.17,East,82,1.0,3.0,82,0.00,,FEW070,0.00,0.00,VWS V14.00,2013-01-23 11:00:00,
2013-01-23 06:05:00,61.8,56.2,30.17,East,82,0.0,3.0,82,0.00,,FEW070,0.00,0.00,VWS V14.00,2013-01-23 11:05:00,
2013-01-23 06:10:00,61.7,56.2,30.18,East,82,0.0,1.0,82,0.00,,FEW070,0.00,0.00,VWS V14.00,2013-01-23 11:10:00,
2013-01-23 06:15:00,61.6,56.1,30.18,East,82,0.0,3.0,82,0.00,,FEW070,0.00,0.00,VWS V14.00,2013-01-23 11:15:00,
2013-01-23 06:20:00,61.6,56.4,30.19,East,82,0.0,3.0,83,0.00,,FEW070,0.00,0.00,VWS V14.00,2013-01-23 11:20:00,
2013-01-23 06:25:00,61.6,56.4,30.18,East,82,0.0,0.0,83,0.00,,FEW070,0.00,0.00,VWS V14.00,2013-01-23 11:25:00,
2013-01-23 06:30:00,61.4,56.2,30.18,East,82,2.0,5.0,83,0.00,,FEW070,0.00,0.00,VWS V14.00,2013-01-23 11:30:00,
2013-01-23 06:35:00,61.3,56.1,30.18,ENE,78,4.0,6.0,83,0.00,,FEW070,0.00,0.00,VWS V14.00,2013-01-23 11:35:00,
2013-01-23 06:40:00,61.3,56.1,30.19,ENE,78,2.0,4.0,83,0.00,,FEW070,0.00,0.00,VWS V14.00,2013-01-23 11:40:00,
2013-01-23 06:45:00,61.3,56.1,30.19,ENE,78,2.0,4.0,83,0.00,,FEW070,0.00,0.00,VWS V14.00,2013-01-23 11:45:00,
2013-01-23 06:50:00,61.2,56.0,30.19,ENE,75,1.0,6.0,83,0.00,,FEW070,0.00,0.00,VWS V14.00,2013-01-23 11:50:00,
2013-01-23 06:55:00,61.2,56.0,30.18,ENE,74,0.0,0.0,83,0.00,,FEW070,0.00,0.00,VWS V14.00,2013-01-23 11:55:00,
2013-01-23 07:00:00,61.2,56.0,30.19,ENE,74,0.0,3.0,83,0.00,,FEW070,0.00,0.00,VWS V14.00,2013-01-23 12:00:00,
2013-01-23 07:05:00,61.1,55.9,30.19,ENE,74,3.0,3.0,83,0.00,,FEW070,0.00,0.00,VWS V14.00,2013-01-23 12:05:00,
2013-01-23 07:10:00,61.1,55.9,30.20,ENE,62,4.0,4.0,83,0.00,,FEW070,0.00,0.00,VWS V14.00,2013-01-23 12:10:00,
2013-01-23 07:15:00,61.1,55.9,30.20,ENE,58,0.0,1.0,83,0.00,,FEW070,0.00,0.00,VWS V14.00,2013-01-23 12:15:00,
2013-01-23 07:20:00,61.1,55.9,30.20,ENE,58,5.0,5.0,83,0.00,,FEW070,0.00,0.00,VWS V14.00,2013-01-23 12:20:00,
2013-01-23 07:25:00,60.9,55.7,30.19,ENE,57,1.0,3.0,83,0.00,,FEW070,0.00,5.00,VWS V14.00,2013-01-23 12:25:00,
2013-01-23 07:30:00,60.9,55.7,30.20,NE,53,3.0,6.0,83,0.00,,FEW070,0.00,5.00,VWS V14.00,2013-01-23 12:30:00,
2013-01-23 07:35:00,60.8,55.6,30.20,NE,53,0.0,2.0,83,0.00,,BKN200,0.00,7.00,VWS V14.00,2013-01-23 12:35:00,
2013-01-23 07:41:00,60.8,55.6,30.20,NE,53,4.0,4.0,83,0.00,,BKN200,0.00,9.00,VWS V14.00,2013-01-23 12:41:00,
2013-01-23 07:46:00,60.8,55.6,30.21,NE,53,0.0,2.0,83,0.00,,BKN200,0.00,12.00,VWS V14.00,2013-01-23 12:46:00,
2013-01-23 07:51:00,60.7,55.5,30.22,NE,49,3.0,6.0,83,0.00,,BKN200,0.00,16.00,VWS V14.00,2013-01-23 12:51:00,
2013-01-23 07:56:00,60.7,55.5,30.22,NNE,20,6.0,6.0,83,0.00,,BKN200,0.00,21.00,VWS V14.00,2013-01-23 12:56:00,
2013-01-23 08:01:00,60.7,55.5,30.22,NNE,23,6.0,6.0,83,0.00,,BKN200,0.00,28.00,VWS V14.00,2013-01-23 13:01:00,
2013-01-23 08:06:00,60.8,55.3,30.22,NNE,25,6.0,9.0,82,0.00,,BKN200,0.00,32.00,VWS V14.00,2013-01-23 13:06:00,
2013-01-23 08:11:00,60.9,55.4,30.22,NNE,30,3.0,7.0,82,0.00,,BKN200,0.00,28.00,VWS V14.00,2013-01-23 13:11:00,
2013-01-23 08:16:00,61.1,55.6,30.22,NE,34,5.0,5.0,82,0.00,,BKN200,0.00,30.00,VWS V14.00,2013-01-23 13:16:00,
2013-01-23 08:21:00,61.2,55.7,30.22,NE,34,4.0,5.0,82,0.00,,BKN200,0.00,33.00,VWS V14.00,2013-01-23 13:21:00,
2013-01-23 08:26:00,61.3,55.8,30.22,NE,34,4.0,6.0,82,0.00,,BKN200,0.00,39.00,VWS V14.00,2013-01-23 13:26:00,
2013-01-23 08:31:00,61.5,56.0,30.22,NE,36,6.0,6.0,82,0.00,,BKN200,0.00,46.00,VWS V14.00,2013-01-23 13:31:00,
2013-01-23 08:36:00,61.6,55.7,30.22,NE,41,4.0,5.0,81,0.00,,BKN200,0.00,51.00,VWS V14.00,2013-01-23 13:36:00,
2013-01-23 08:41:00,61.8,55.9,30.22,NE,36,3.0,7.0,81,0.00,,BKN200,0.00,74.00,VWS V14.00,2013-01-23 13:41:00,
2013-01-23 08:46:00,62.1,56.2,30.23,NE,49,5.0,7.0,81,0.00,,BKN200,0.00,67.00,VWS V14.00,2013-01-23 13:46:00,
2013-01-23 08:51:00,62.4,56.2,30.23,NNE,19,7.0,12.0,80,0.00,,BKN200,0.00,97.00,VWS V14.00,2013-01-23 13:51:00,
2013-01-23 08:56:00,62.6,56.0,30.24,NNE,23,6.0,9.0,79,0.00,,BKN200,0.00,98.00,VWS V14.00,2013-01-23 13:56:00,
2013-01-23 09:01:00,62.9,56.3,30.24,NNE,23,6.0,10.0,79,0.00,,BKN200,0.00,128.00,VWS V14.00,2013-01-23 14:01:00,
2013-01-23 09:06:00,63.1,56.5,30.24,NE,35,5.0,6.0,79,0.00,,BKN200,0.00,109.00,VWS V14.00,2013-01-23 14:06:00,
2013-01-23 09:11:00,63.4,56.8,30.24,NNE,33,6.0,10.0,79,0.00,,BKN200,0.00,79.00,VWS V14.00,2013-01-23 14:11:00,
2013-01-23 09:16:00,63.7,56.7,30.24,NNE,22,9.0,10.0,78,0.00,,BKN200,0.00,62.00,VWS V14.00,2013-01-23 14:16:00,
2013-01-23 09:21:00,63.7,56.7,30.24,NE,35,5.0,9.0,78,0.00,,BKN200,0.00,60.00,VWS V14.00,2013-01-23 14:21:00,
2013-01-23 09:26:00,63.8,56.8,30.24,NE,40,4.0,4.0,78,0.00,,BKN200,0.00,62.00,VWS V14.00,2013-01-23 14:26:00,
2013-01-23 09:31:00,64.0,57.0,30.24,NE,41,3.0,7.0,78,0.00,,BKN200,0.00,67.00,VWS V14.00,2013-01-23 14:31:00,
2013-01-23 09:36:00,64.1,56.8,30.25,NNE,32,6.0,11.0,77,0.00,,BKN200,0.00,69.00,VWS V14.00,2013-01-23 14:36:00,
2013-01-23 09:41:00,64.1,57.1,30.25,NNE,27,5.0,5.0,78,0.00,,BKN200,0.00,63.00,VWS V14.00,2013-01-23 14:41:00,
2013-01-23 09:46:00,64.1,56.8,30.25,ENE,59,0.0,5.0,77,0.00,,BKN200,0.00,74.00,VWS V14.00,2013-01-23 14:46:00,
2013-01-23 09:51:00,64.3,57.3,30.25,NE,56,5.0,7.0,78,0.00,,BKN200,0.00,84.00,VWS V14.00,2013-01-23 14:51:00,
2013-01-23 09:56:00,64.4,57.0,30.25,NNE,24,4.0,9.0,77,0.00,,BKN200,0.00,70.00,VWS V14.00,2013-01-23 14:56:00,
2013-01-23 10:01:00,64.4,57.0,30.25,NE,44,5.0,6.0,77,0.00,,BKN200,0.00,60.00,VWS V14.00,2013-01-23 15:01:00,
2013-01-23 10:06:00,64.4,57.0,30.25,NE,51,5.0,8.0,77,0.00,,BKN200,0.00,65.00,VWS V14.00,2013-01-23 15:06:00,
2013-01-23 10:11:00,64.4,57.0,30.25,NE,45,6.0,10.0,77,0.00,,BKN200,0.00,81.00,VWS V14.00,2013-01-23 15:11:00,
2013-01-23 10:16:00,64.7,57.7,30.25,NNE,22,4.0,6.0,78,0.00,,BKN200,0.00,83.00,VWS V14.00,2013-01-23 15:16:00,
2013-01-23 10:21:00,65.0,57.6,30.25,ENE,57,5.0,9.0,77,0.00,,BKN200,0.00,70.00,VWS V14.00,2013-01-23 15:21:00,
2013-01-23 10:26:00,65.2,57.8,30.25,NE,41,6.0,8.0,77,0.00,,BKN200,0.00,98.00,VWS V14.00,2013-01-23 15:26:00,
2013-01-23 10:31:00,65.4,57.7,30.25,NNE,22,12.0,14.0,76,0.00,,BKN200,0.00,84.00,VWS V14.00,2013-01-23 15:31:00,
2013-01-23 10:36:00,65.4,57.7,30.25,NE,37,3.0,9.0,76,0.00,,BKN200,0.00,63.00,VWS V14.00,2013-01-23 15:36:00,
2013-01-23 10:41:00,65.6,57.8,30.25,NE,39,5.0,5.0,76,0.00,,BKN200,0.00,95.00,VWS V14.00,2013-01-23 15:41:00,
2013-01-23 10:46:00,65.9,58.1,30.25,NE,36,5.0,6.0,76,0.00,,BKN200,0.00,111.00,VWS V14.00,2013-01-23 15:46:00,
2013-01-23 10:51:00,66.2,58.4,30.25,NE,45,5.0,6.0,76,0.00,,BKN200,0.00,141.00,VWS V14.00,2013-01-23 15:51:00,
2013-01-23 10:56:00,66.6,58.4,30.25,NNE,22,4.0,10.0,75,0.00,,BKN200,0.00,144.00,VWS V14.00,2013-01-23 15:56:00,
2013-01-23 11:02:00,67.1,58.2,30.25,NE,44,6.0,9.0,73,0.00,,BKN200,0.00,97.00,VWS V14.00,2013-01-23 16:02:00,
2013-01-23 11:07:00,67.3,58.0,30.25,NE,36,3.0,3.0,72,0.00,,BKN200,0.00,121.00,VWS V14.00,2013-01-23 16:07:00,
2013-01-23 11:12:00,67.5,58.2,30.25,NNE,13,3.0,10.0,72,0.00,,BKN200,0.00,98.00,VWS V14.00,2013-01-23 16:12:00,
2013-01-23 11:17:00,67.8,58.5,30.25,NNE,27,5.0,6.0,72,0.00,,BKN200,0.00,111.00,VWS V14.00,2013-01-23 16:17:00,
2013-01-23 11:22:00,68.0,57.9,30.24,ENE,74,6.0,7.0,70,0.00,,BKN200,0.00,134.00,VWS V14.00,2013-01-23 16:22:00,
2013-01-23 11:27:00,68.3,58.2,30.24,ENE,64,6.0,11.0,70,0.00,,BKN200,0.00,118.00,VWS V14.00,2013-01-23 16:27:00,
2013-01-23 11:32:00,68.8,58.2,30.24,ENE,69,6.0,7.0,69,0.00,,SCT045,0.00,120.00,VWS V14.00,2013-01-23 16:32:00,
2013-01-23 11:37:00,69.4,58.0,30.23,East,92,7.0,16.0,67,0.00,,SCT045,0.00,148.00,VWS V14.00,2013-01-23 16:37:00,
2013-01-23 11:42:00,69.7,57.8,30.23,ESE,118,6.0,8.0,66,0.00,,SCT045,0.00,149.00,VWS V14.00,2013-01-23 16:42:00,
2013-01-23 11:47:00,69.9,58.0,30.23,ENE,74,6.0,8.0,66,0.00,,SCT045,0.00,151.00,VWS V14.00,2013-01-23 16:47:00,
2013-01-23 11:52:00,70.1,58.2,30.23,East,87,9.0,10.0,66,0.00,,SCT045,0.00,171.00,VWS V14.00,2013-01-23 16:52:00,
2013-01-23 11:57:00,70.3,58.4,30.22,East,97,11.0,11.0,66,0.00,,SCT045,0.00,137.00,VWS V14.00,2013-01-23 16:57:00,
2013-01-23 12:02:00,70.7,57.5,30.22,East,84,6.0,9.0,63,0.00,,SCT045,0.00,142.00,VWS V14.00,2013-01-23 17:02:00,
2013-01-23 12:07:00,70.8,57.2,30.22,NE,51,10.0,11.0,62,0.00,,SCT045,0.00,86.00,VWS V14.00,2013-01-23 17:07:00,
2013-01-23 12:12:00,70.8,56.7,30.22,ESE,112,9.0,14.0,61,0.00,,SCT045,0.00,81.00,VWS V14.00,2013-01-23 17:12:00,
2013-01-23 12:17:00,70.7,56.2,30.22,ESE,109,3.0,10.0,60,0.00,,SCT045,0.00,79.00,VWS V14.00,2013-01-23 17:17:00,
2013-01-23 12:22:00,71.2,56.2,30.22,ENE,75,10.0,12.0,59,0.00,,SCT045,0.00,169.00,VWS V14.00,2013-01-23 17:22:00,
2013-01-23 12:27:00,71.3,55.8,30.21,ESE,107,14.0,16.0,58,0.00,,SCT045,0.00,58.00,VWS V14.00,2013-01-23 17:27:00,
2013-01-23 12:32:00,71.3,55.3,30.21,ENE,72,6.0,14.0,57,0.00,,SCT035,0.00,88.00,VWS V14.00,2013-01-23 17:32:00,
2013-01-23 12:37:00,71.4,55.9,30.21,ESE,112,7.0,15.0,58,0.00,,SCT035,0.00,107.00,VWS V14.00,2013-01-23 17:37:00,
2013-01-23 12:42:00,71.7,56.6,30.20,East,91,10.0,13.0,59,0.00,,SCT035,0.00,156.00,VWS V14.00,2013-01-23 17:42:00,
2013-01-23 12:47:00,71.6,55.6,30.20,ENE,76,8.0,12.0,57,0.00,,SCT035,0.00,158.00,VWS V14.00,2013-01-23 17:47:00,
2013-01-23 12:52:00,71.4,55.4,30.20,SE,124,13.0,13.0,57,0.00,,SCT035,0.00,58.00,VWS V14.00,2013-01-23 17:52:00,
2013-01-23 12:57:00,71.1,55.6,30.20,ESE,117,7.0,13.0,58,0.00,,SCT035,0.00,160.00,VWS V14.00,2013-01-23 17:57:00,
2013-01-23 13:02:00,71.4,54.9,30.20,East,87,13.0,15.0,56,0.00,,SCT035,0.00,158.00,VWS V14.00,2013-01-23 18:02:00,
2013-01-23 13:07:00,71.7,55.7,30.20,ESE,121,7.0,12.0,57,0.00,,SCT035,0.00,156.00,VWS V14.00,2013-01-23 18:07:00,
2013-01-23 13:12:00,71.8,56.2,30.19,East,101,7.0,9.0,58,0.00,,SCT035,0.00,111.00,VWS V14.00,2013-01-23 18:12:00,
2013-01-23 13:17:00,71.6,55.1,30.19,ENE,63,4.0,14.0,56,0.00,,SCT035,0.00,120.00,VWS V14.00,2013-01-23 18:17:00,
2013-01-23 13:22:00,71.6,55.6,30.19,ESE,121,7.0,9.0,57,0.00,,SCT035,0.00,144.00,VWS V14.00,2013-01-23 18:22:00,
2013-01-23 13:27:00,71.9,54.9,30.19,SE,124,5.0,11.0,55,0.00,,SCT035,0.00,88.00,VWS V14.00,2013-01-23 18:27:00,
2013-01-23 13:32:00,71.7,54.7,30.18,East,97,9.0,12.0,55,0.00,,SCT035,0.00,62.00,VWS V14.00,2013-01-23 18:32:00,
2013-01-23 13:37:00,71.3,55.3,30.19,East,98,9.0,13.0,57,0.00,,SCT035,0.00,49.00,VWS V14.00,2013-01-23 18:37:00,
2013-01-23 13:42:00,71.0,54.5,30.18,East,86,5.0,13.0,56,0.00,,SCT035,0.00,49.00,VWS V14.00,2013-01-23 18:42:00,
2013-01-23 13:47:00,71.1,55.1,30.18,ESE,121,5.0,12.0,57,0.00,,SCT035,0.00,137.00,VWS V14.00,2013-01-23 18:47:00,
2013-01-23 13:52:00,71.5,55.0,30.18,ESE,115,13.0,16.0,56,0.00,,SCT035,0.00,132.00,VWS V14.00,2013-01-23 18:52:00,
2013-01-23 13:57:00,71.7,55.7,30.17,SE,129,3.0,11.0,57,0.00,,SCT035,0.00,139.00,VWS V14.00,2013-01-23 18:57:00,
2013-01-23 14:02:00,72.1,55.6,30.18,ESE,110,9.0,13.0,56,0.00,,SCT035,0.00,127.00,VWS V14.00,2013-01-23 19:02:00,
2013-01-23 14:07:00,71.8,55.3,30.18,ESE,102,7.0,11.0,56,0.00,,SCT035,0.00,125.00,VWS V14.00,2013-01-23 19:07:00,
2013-01-23 14:12:00,71.7,54.7,30.18,SE,136,6.0,7.0,55,0.00,,SCT035,0.00,125.00,VWS V14.00,2013-01-23 19:12:00,
2013-01-23 14:17:00,72.1,55.1,30.18,ESE,119,12.0,12.0,55,0.00,,SCT035,0.00,95.00,VWS V14.00,2013-01-23 19:17:00,
2013-01-23 14:23:00,71.9,54.9,30.18,ESE,104,4.0,7.0,55,0.00,,SCT035,0.00,125.00,VWS V14.00,2013-01-23 19:23:00,
2013-01-23 14:27:00,72.0,55.5,30.17,NE,56,8.0,15.0,56,0.00,,SCT035,0.00,137.00,VWS V14.00,2013-01-23 19:27:00,
2013-01-23 14:33:00,72.1,55.1,30.17,ESE,106,7.0,10.0,55,0.00,,SCT035,0.00,86.00,VWS V14.00,2013-01-23 19:33:00,
2013-01-23 14:38:00,71.7,54.7,30.18,ESE,113,7.0,9.0,55,0.00,,SCT035,0.00,47.00,VWS V14.00,2013-01-23 19:38:00,
2013-01-23 14:43:00,71.4,54.9,30.17,ESE,113,2.0,4.0,56,0.00,,SCT035,0.00,132.00,VWS V14.00,2013-01-23 19:43:00,
2013-01-23 14:48:00,71.8,54.8,30.18,SE,128,3.0,10.0,55,0.00,,SCT035,0.00,69.00,VWS V14.00,2013-01-23 19:48:00,
2013-01-23 14:53:00,71.8,54.3,30.18,ESE,108,6.0,11.0,54,0.00,,SCT035,0.00,70.00,VWS V14.00,2013-01-23 19:53:00,
2013-01-23 14:58:00,71.3,54.8,30.18,ESE,106,7.0,10.0,56,0.00,,SCT035,0.00,54.00,VWS V14.00,2013-01-23 19:58:00,
2013-01-23 15:03:00,71.2,56.2,30.17,ESE,119,6.0,7.0,59,0.00,,SCT035,0.00,127.00,VWS V14.00,2013-01-23 20:03:00,
2013-01-23 15:08:00,71.9,56.8,30.17,East,87,12.0,13.0,59,0.00,,SCT035,0.00,116.00,VWS V14.00,2013-01-23 20:08:00,
2013-01-23 15:13:00,72.0,55.0,30.17,ESE,104,9.0,13.0,55,0.00,,SCT035,0.00,40.00,VWS V14.00,2013-01-23 20:13:00,
2013-01-23 15:18:00,71.3,54.3,30.17,East,92,9.0,9.0,55,0.00,,SCT035,0.00,104.00,VWS V14.00,2013-01-23 20:18:00,
2013-01-23 15:23:00,71.3,54.8,30.18,ESE,115,4.0,7.0,56,0.00,,SCT035,0.00,105.00,VWS V14.00,2013-01-23 20:23:00,
2013-01-23 15:28:00,71.5,56.0,30.17,ESE,111,9.0,9.0,58,0.00,,SCT035,0.00,107.00,VWS V14.00,2013-01-23 20:28:00,
2013-01-23 15:33:00,71.7,56.6,30.18,ESE,106,7.0,13.0,59,0.00,,SCT035,0.00,102.00,VWS V14.00,2013-01-23 20:33:00,
2013-01-23 15:38:00,71.9,56.8,30.18,East,100,10.0,11.0,59,0.00,,SCT035,0.00,69.00,VWS V14.00,2013-01-23 20:38:00,
2013-01-23 15:43:00,71.8,56.2,30.17,SE,127,4.0,10.0,58,0.00,,SCT035,0.00,51.00,VWS V14.00,2013-01-23 20:43:00,
2013-01-23 15:48:00,71.5,56.0,30.18,East,86,5.0,9.0,58,0.00,,SCT035,0.00,88.00,VWS V14.00,2013-01-23 20:48:00,
2013-01-23 15:53:00,71.4,57.3,30.18,East,99,5.0,8.0,61,0.00,,SCT035,0.00,42.00,VWS V14.00,2013-01-23 20:53:00,
2013-01-23 15:58:00,71.1,56.1,30.18,East,94,5.0,7.0,59,0.00,,SCT035,0.00,39.00,VWS V14.00,2013-01-23 20:58:00,
2013-01-23 16:03:00,70.9,56.3,30.18,East,98,6.0,12.0,60,0.00,,SCT035,0.00,79.00,VWS V14.00,2013-01-23 21:03:00,
2013-01-23 16:08:00,70.9,55.9,30.19,ESE,116,10.0,10.0,59,0.00,,SCT035,0.00,76.00,VWS V14.00,2013-01-23 21:08:00,
2013-01-23 16:13:00,70.9,56.3,30.19,ESE,110,11.0,11.0,60,0.00,,SCT035,0.00,33.00,VWS V14.00,2013-01-23 21:13:00,
2013-01-23 16:18:00,70.8,56.2,30.19,SE,135,3.0,7.0,60,0.00,,SCT035,0.00,79.00,VWS V14.00,2013-01-23 21:18:00,
2013-01-23 16:23:00,71.0,56.0,30.19,SSE,147,9.0,13.0,59,0.00,,SCT035,0.00,79.00,VWS V14.00,2013-01-23 21:23:00,
2013-01-23 16:28:00,71.4,56.8,30.19,ESE,109,5.0,13.0,60,0.00,,SCT035,0.00,70.00,VWS V14.00,2013-01-23 21:28:00,
2013-01-23 16:33:00,71.3,56.2,30.19,ESE,105,9.0,12.0,59,0.00,,SCT030,0.00,25.00,VWS V14.00,2013-01-23 21:33:00,
2013-01-23 16:38:00,70.7,56.6,30.19,ESE,106,4.0,7.0,61,0.00,,SCT030,0.00,25.00,VWS V14.00,2013-01-23 21:38:00,
2013-01-23 16:43:00,70.5,56.4,30.19,ESE,114,12.0,13.0,61,0.00,,SCT030,0.00,19.00,VWS V14.00,2013-01-23 21:43:00,
2013-01-23 16:48:00,70.2,56.6,30.19,ESE,114,6.0,10.0,62,0.00,,SCT030,0.00,19.00,VWS V14.00,2013-01-23 21:48:00,
2013-01-23 16:53:00,70.2,56.6,30.19,ESE,118,9.0,11.0,62,0.00,,SCT030,0.00,44.00,VWS V14.00,2013-01-23 21:53:00,
2013-01-23 16:58:00,70.3,56.2,30.19,ESE,105,5.0,7.0,61,0.00,,SCT030,0.00,40.00,VWS V14.00,2013-01-23 21:58:00,
2013-01-23 17:03:00,70.5,56.4,30.19,East,95,5.0,7.0,61,0.00,,SCT030,0.00,37.00,VWS V14.00,2013-01-23 22:03:00,
2013-01-23 17:08:00,70.4,55.9,30.19,East,90,6.0,10.0,60,0.00,,SCT030,0.00,35.00,VWS V14.00,2013-01-23 22:08:00,
2013-01-23 17:13:00,70.3,56.2,30.19,ESE,109,5.0,7.0,61,0.00,,SCT030,0.00,40.00,VWS V14.00,2013-01-23 22:13:00,
2013-01-23 17:19:00,70.2,56.1,30.19,SE,126,7.0,11.0,61,0.00,,SCT030,0.00,25.00,VWS V14.00,2013-01-23 22:19:00,
2013-01-23 17:24:00,70.1,56.5,30.19,East,91,5.0,9.0,62,0.00,,SCT030,0.00,35.00,VWS V14.00,2013-01-23 22:24:00,
2013-01-23 17:29:00,69.9,56.3,30.19,ESE,102,10.0,10.0,62,0.00,,SCT030,0.00,30.00,VWS V14.00,2013-01-23 22:29:00,
2013-01-23 17:34:00,69.8,55.8,30.19,ESE,115,5.0,7.0,61,0.00,,SCT030,0.00,12.00,VWS V14.00,2013-01-23 22:34:00,
2013-01-23 17:39:00,69.7,56.1,30.19,ESE,116,2.0,6.0,62,0.00,,SCT030,0.00,11.00,VWS V14.00,2013-01-23 22:39:00,
2013-01-23 17:44:00,69.5,56.4,30.19,ESE,116,4.0,6.0,63,0.00,,SCT030,0.00,5.00,VWS V14.00,2013-01-23 22:44:00,
2013-01-23 17:49:00,69.4,56.3,30.19,ESE,115,2.0,5.0,63,0.00,,SCT030,0.00,0.00,VWS V14.00,2013-01-23 22:49:00,
2013-01-23 17:54:00,69.2,55.6,30.19,ESE,113,3.0,6.0,62,0.00,,SCT030,0.00,0.00,VWS V14.00,2013-01-23 22:54:00,
2013-01-23 17:59:00,69.2,56.1,30.19,ESE,112,1.0,6.0,63,0.00,,SCT030,0.00,0.00,VWS V14.00,2013-01-23 22:59:00,
2013-01-23 18:04:00,69.1,56.4,30.20,ESE,113,2.0,2.0,64,0.00,,SCT030,0.00,0.00,VWS V14.00,2013-01-23 23:04:00,
2013-01-23 18:09:00,68.8,56.1,30.20,ESE,112,1.0,3.0,64,0.00,,SCT030,0.00,0.00,VWS V14.00,2013-01-23 23:09:00,
2013-01-23 18:14:00,68.7,56.5,30.20,ESE,107,3.0,3.0,65,0.00,,SCT030,0.00,0.00,VWS V14.00,2013-01-23 23:14:00,
2013-01-23 18:19:00,68.6,56.0,30.20,ESE,107,0.0,4.0,64,0.00,,SCT030,0.00,0.00,VWS V14.00,2013-01-23 23:19:00,
2013-01-23 18:24:00,68.4,55.8,30.20,ESE,107,0.0,4.0,64,0.00,,SCT030,0.00,0.00,VWS V14.00,2013-01-23 23:24:00,
2013-01-23 18:29:00,68.3,56.1,30.20,ESE,107,0.0,2.0,65,0.00,,SCT030,0.00,0.00,VWS V14.00,2013-01-23 23:29:00,
2013-01-23 18:34:00,68.2,56.4,30.20,ESE,107,0.0,0.0,66,0.00,,SCT030,0.00,0.00,VWS V14.00,2013-01-23 23:34:00,
2013-01-23 18:39:00,68.0,56.2,30.20,ESE,107,0.0,0.0,66,0.00,,SCT030,0.00,0.00,VWS V14.00,2013-01-23 23:39:00,
2013-01-23 18:44:00,67.8,56.0,30.20,ESE,107,0.0,0.0,66,0.00,,SCT030,0.00,0.00,VWS V14.00,2013-01-23 23:44:00,
2013-01-23 18:49:00,67.6,56.3,30.20,ESE,107,0.0,0.0,67,0.00,,SCT030,0.00,0.00,VWS V14.00,2013-01-23 23:49:00,
2013-01-23 18:54:00,67.4,56.1,30.20,ESE,107,0.0,0.0,67,0.00,,SCT030,0.00,0.00,VWS V14.00,2013-01-23 23:54:00,
2013-01-23 18:59:00,67.2,56.7,30.20,ESE,107,0.0,0.0,69,0.00,,SCT030,0.00,0.00,VWS V14.00,2013-01-23 23:59:00,
2013-01-23 19:04:00,67.0,56.1,30.20,ESE,107,0.0,0.0,68,0.00,,SCT030,0.00,0.00,VWS V14.00,2013-01-24 00:04:00,
2013-01-23 19:09:00,66.9,56.8,30.20,ESE,107,0.0,0.0,70,0.00,,CLR,0.00,0.00,VWS V14.00,2013-01-24 00:09:00,
2013-01-23 19:14:00,66.8,57.1,30.20,ESE,107,0.0,0.0,71,0.00,,CLR,0.00,0.00,VWS V14.00,2013-01-24 00:14:00,
2013-01-23 19:19:00,66.5,56.8,30.21,ESE,107,0.0,0.0,71,0.00,,CLR,0.00,0.00,VWS V14.00,2013-01-24 00:19:00,
2013-01-23 19:24:00,66.3,56.6,30.21,ESE,107,0.0,0.0,71,0.00,,CLR,0.00,0.00,VWS V14.00,2013-01-24 00:24:00,
2013-01-23 19:29:00,66.0,56.7,30.21,ESE,107,0.0,0.0,72,0.00,,CLR,0.00,0.00,VWS V14.00,2013-01-24 00:29:00,
2013-01-23 19:34:00,65.9,57.4,30.21,ESE,107,0.0,0.0,74,0.00,,CLR,0.00,0.00,VWS V14.00,2013-01-24 00:34:00,
2013-01-23 19:39:00,65.6,57.1,30.22,ESE,107,3.0,3.0,74,0.00,,CLR,0.00,0.00,VWS V14.00,2013-01-24 00:39:00,
2013-01-23 19:44:00,65.3,57.2,30.22,ESE,107,3.0,3.0,75,0.00,,CLR,0.00,0.00,VWS V14.00,2013-01-24 00:44:00,
2013-01-23 19:49:00,65.4,57.3,30.22,ESE,107,0.0,3.0,75,0.00,,CLR,0.00,0.00,VWS V14.00,2013-01-24 00:49:00,
2013-01-23 19:54:00,65.4,57.3,30.22,ESE,107,3.0,4.0,75,0.00,,CLR,0.00,0.00,VWS V14.00,2013-01-24 00:54:00,
2013-01-23 19:59:00,65.4,57.7,30.22,ESE,107,2.0,5.0,76,0.00,,CLR,0.00,0.00,VWS V14.00,2013-01-24 00:59:00,
2013-01-23 20:04:00,65.5,57.7,30.22,ESE,104,2.0,5.0,76,0.00,,CLR,0.00,0.00,VWS V14.00,2013-01-24 01:04:00,
2013-01-23 20:09:00,65.4,58.0,30.22,East,99,0.0,5.0,77,0.00,,CLR,0.00,0.00,VWS V14.00,2013-01-24 01:09:00,
2013-01-23 20:14:00,65.4,58.0,30.22,East,98,0.0,3.0,77,0.00,,CLR,0.00,0.00,VWS V14.00,2013-01-24 01:14:00,
2013-01-23 20:19:00,65.2,58.2,30.22,East,97,2.0,4.0,78,0.00,,CLR,0.00,0.00,VWS V14.00,2013-01-24 01:19:00,
2013-01-23 20:24:00,65.0,58.3,30.22,East,88,0.0,4.0,79,0.00,,CLR,0.00,0.00,VWS V14.00,2013-01-24 01:24:00,
2013-01-23 20:29:00,64.9,58.2,30.22,East,81,1.0,5.0,79,0.00,,CLR,0.00,0.00,VWS V14.00,2013-01-24 01:29:00,
2013-01-23 20:34:00,64.8,58.1,30.23,ENE,78,5.0,6.0,79,0.00,,CLR,0.00,0.00,VWS V14.00,2013-01-24 01:34:00,
2013-01-23 20:39:00,64.7,58.4,30.23,ENE,70,0.0,4.0,80,0.00,,CLR,0.00,0.00,VWS V14.00,2013-01-24 01:39:00,
2013-01-23 20:44:00,64.5,58.2,30.22,ENE,70,0.0,0.0,80,0.00,,CLR,0.00,0.00,VWS V14.00,2013-01-24 01:44:00,
2013-01-23 20:49:00,64.3,58.0,30.23,ENE,70,0.0,1.0,80,0.00,,CLR,0.00,0.00,VWS V14.00,2013-01-24 01:49:00,
2013-01-23 20:54:00,64.1,58.2,30.23,ENE,70,0.0,1.0,81,0.00,,CLR,0.00,0.00,VWS V14.00,2013-01-24 01:54:00,
2013-01-23 20:59:00,63.9,58.3,30.22,ENE,70,0.0,1.0,82,0.00,,CLR,0.00,0.00,VWS V14.00,2013-01-24 01:59:00,
2013-01-23 21:04:00,63.7,58.1,30.23,ENE,70,0.0,1.0,82,0.00,,CLR,0.00,0.00,VWS V14.00,2013-01-24 02:04:00,
2013-01-23 21:09:00,63.5,57.9,30.23,ENE,70,2.0,4.0,82,0.00,,CLR,0.00,0.00,VWS V14.00,2013-01-24 02:09:00,
2013-01-23 21:14:00,63.4,58.2,30.23,ENE,70,0.0,2.0,83,0.00,,CLR,0.00,0.00,VWS V14.00,2013-01-24 02:14:00,
2013-01-23 21:19:00,63.2,57.6,30.23,ENE,68,0.0,1.0,82,0.00,,CLR,0.00,0.00,VWS V14.00,2013-01-24 02:19:00,
2013-01-23 21:24:00,63.1,57.5,30.23,ENE,68,0.0,1.0,82,0.00,,CLR,0.00,0.00,VWS V14.00,2013-01-24 02:24:00,
2013-01-23 21:29:00,63.0,57.4,30.23,ENE,67,0.0,4.0,82,0.00,,CLR,0.00,0.00,VWS V14.00,2013-01-24 02:29:00,
2013-01-23 21:34:00,62.8,57.2,30.24,ENE,66,3.0,5.0,82,0.00,,CLR,0.00,0.00,VWS V14.00,2013-01-24 02:34:00,
2013-01-23 21:39:00,62.7,57.1,30.24,ENE,64,4.0,5.0,82,0.00,,CLR,0.00,0.00,VWS V14.00,2013-01-24 02:39:00,
2013-01-23 21:44:00,62.7,56.8,30.23,ENE,61,1.0,4.0,81,0.00,,CLR,0.00,0.00,VWS V14.00,2013-01-24 02:44:00,
2013-01-23 21:49:00,62.6,56.7,30.23,ENE,61,1.0,1.0,81,0.00,,CLR,0.00,0.00,VWS V14.00,2013-01-24 02:49:00,
2013-01-23 21:54:00,62.6,56.7,30.23,ENE,61,0.0,1.0,81,0.00,,CLR,0.00,0.00,VWS V14.00,2013-01-24 02:54:00,
2013-01-23 21:59:00,62.5,56.6,30.23,ENE,61,0.0,0.0,81,0.00,,CLR,0.00,0.00,VWS V14.00,2013-01-24 02:59:00,
2013-01-23 22:04:00,62.3,56.7,30.23,ENE,61,0.0,0.0,82,0.00,,CLR,0.00,0.00,VWS V14.00,2013-01-24 03:04:00,
2013-01-23 22:09:00,62.2,56.6,30.23,ENE,61,1.0,1.0,82,0.00,,CLR,0.00,0.00,VWS V14.00,2013-01-24 03:09:00,
2013-01-23 22:14:00,62.1,56.5,30.23,ENE,61,1.0,2.0,82,0.00,,CLR,0.00,0.00,VWS V14.00,2013-01-24 03:14:00,
2013-01-23 22:20:00,62.0,56.5,30.23,ENE,61,0.0,1.0,82,0.00,,CLR,0.00,0.00,VWS V14.00,2013-01-24 03:20:00,
2013-01-23 22:25:00,61.9,56.3,30.23,ENE,61,0.0,0.0,82,0.00,,CLR,0.00,0.00,VWS V14.00,2013-01-24 03:25:00,
2013-01-23 22:30:00,61.8,56.2,30.23,ENE,61,0.0,0.0,82,0.00,,CLR,0.00,0.00,VWS V14.00,2013-01-24 03:30:00,
2013-01-23 22:35:00,61.6,56.4,30.23,ENE,61,0.0,2.0,83,0.00,,CLR,0.00,0.00,VWS V14.00,2013-01-24 03:35:00,
2013-01-23 22:40:00,61.5,56.3,30.23,ENE,61,0.0,1.0,83,0.00,,CLR,0.00,0.00,VWS V14.00,2013-01-24 03:40:00,
2013-01-23 22:45:00,61.4,56.2,30.23,ENE,61,0.0,3.0,83,0.00,,CLR,0.00,0.00,VWS V14.00,2013-01-24 03:45:00,
2013-01-23 22:50:00,61.3,56.1,30.23,ENE,61,0.0,2.0,83,0.00,,CLR,0.00,0.00,VWS V14.00,2013-01-24 03:50:00,
2013-01-23 22:55:00,61.1,55.9,30.23,ENE,61,3.0,4.0,83,0.00,,CLR,0.00,0.00,VWS V14.00,2013-01-24 03:55:00,
2013-01-23 23:00:00,61.1,55.9,30.22,ENE,61,0.0,0.0,83,0.00,,CLR,0.00,0.00,VWS V14.00,2013-01-24 04:00:00,
2013-01-23 23:05:00,61.1,55.9,30.22,ENE,61,0.0,0.0,83,0.00,,CLR,0.00,0.00,VWS V14.00,2013-01-24 04:05:00,
2013-01-23 23:10:00,61.0,55.8,30.22,ENE,61,0.0,3.0,83,0.00,,CLR,0.00,0.00,VWS V14.00,2013-01-24 04:10:00,
2013-01-23 23:15:00,61.0,55.8,30.22,ENE,61,0.0,0.0,83,0.00,,CLR,0.00,0.00,VWS V14.00,2013-01-24 04:15:00,
2013-01-23 23:20:00,61.0,55.8,30.22,ENE,61,0.0,1.0,83,0.00,,CLR,0.00,0.00,VWS V14.00,2013-01-24 04:20:00,
2013-01-23 23:25:00,60.9,55.7,30.22,ENE,61,0.0,0.0,83,0.00,,CLR,0.00,0.00,VWS V14.00,2013-01-24 04:25:00,
2013-01-23 23:30:00,60.7,55.5,30.22,ENE,61,0.0,0.0,83,0.00,,CLR,0.00,0.00,VWS V14.00,2013-01-24 04:30:00,
2013-01-23 23:35:00,60.5,55.7,30.21,ENE,61,0.0,0.0,84,0.00,,CLR,0.00,0.00,VWS V14.00,2013-01-24 04:35:00,
2013-01-23 23:40:00,60.5,55.7,30.22,ENE,61,0.0,0.0,84,0.00,,CLR,0.00,0.00,VWS V14.00,2013-01-24 04:40:00,
2013-01-23 23:45:00,60.3,55.5,30.22,ENE,61,0.0,0.0,84,0.00,,CLR,0.00,0.00,VWS V14.00,2013-01-24 04:45:00,
2013-01-23 23:50:00,60.3,55.8,30.22,ENE,61,0.0,0.0,85,0.00,,CLR,0.00,0.00,VWS V14.00,2013-01-24 04:50:00,
2013-01-23 23:55:00,60.2,55.7,30.22,ENE,61,0.0,0.0,85,0.00,,CLR,0.00,0.00,VWS V14.00,2013-01-24 04:55:00,